Year,Month,Day,Hour,Minute,Value (Times are PST for temperature in C)
2018,02,06,00,00,7.20
2018,02,06,00,01,7.20
2018,02,06,00,02,7.20
2018,02,06,00,03,7.20
2018,02,06,00,04,7.20
2018,02,06,00,05,7.20
2018,02,06,00,06,7.20
2018,02,06,00,07,7.20
2018,02,06,00,08,7.20
2018,02,06,00,09,7.20
2018,02,06,00,10,7.20
2018,02,06,00,11,7.20
2018,02,06,00,12,7.20
2018,02,06,00,13,7.20
2018,02,06,00,14,7.30
2018,02,06,00,15,7.30
2018,02,06,00,16,7.30
2018,02,06,00,17,7.30
2018,02,06,00,18,7.30
2018,02,06,00,19,7.30
2018,02,06,00,20,7.30
2018,02,06,00,21,7.30
2018,02,06,00,22,7.20
2018,02,06,00,23,7.20
2018,02,06,00,24,7.20
2018,02,06,00,25,7.20
2018,02,06,00,26,7.20
2018,02,06,00,27,7.20
2018,02,06,00,28,7.20
2018,02,06,00,29,7.20
2018,02,06,00,30,7.20
2018,02,06,00,31,7.20
2018,02,06,00,32,7.20
2018,02,06,00,33,7.20
2018,02,06,00,34,7.20
2018,02,06,00,35,7.20
2018,02,06,00,36,7.20
2018,02,06,00,37,7.20
2018,02,06,00,38,7.20
2018,02,06,00,39,7.20
2018,02,06,00,40,7.20
2018,02,06,00,41,7.10
2018,02,06,00,42,7.10
2018,02,06,00,43,7.10
2018,02,06,00,44,7.10
2018,02,06,00,45,7.10
2018,02,06,00,46,7.10
2018,02,06,00,47,7.10
2018,02,06,00,48,7.20
2018,02,06,00,49,7.20
2018,02,06,00,50,7.20
2018,02,06,00,51,7.20
2018,02,06,00,52,7.20
2018,02,06,00,53,7.20
2018,02,06,00,54,7.20
2018,02,06,00,55,7.20
2018,02,06,00,56,7.20
2018,02,06,00,57,7.20
2018,02,06,00,58,7.20
2018,02,06,00,59,7.20
2018,02,06,01,00,7.20
2018,02,06,01,01,7.20
2018,02,06,01,02,7.20
2018,02,06,01,03,7.20
2018,02,06,01,04,7.20
2018,02,06,01,05,7.20
2018,02,06,01,06,7.20
2018,02,06,01,07,7.30
2018,02,06,01,08,7.30
2018,02,06,01,09,7.30
2018,02,06,01,10,7.30
2018,02,06,01,11,7.30
2018,02,06,01,12,7.30
2018,02,06,01,13,7.30
2018,02,06,01,14,7.30
2018,02,06,01,15,7.30
2018,02,06,01,16,7.30
2018,02,06,01,17,7.30
2018,02,06,01,18,7.30
2018,02,06,01,19,7.30
2018,02,06,01,20,7.30
2018,02,06,01,21,7.30
2018,02,06,01,22,7.30
2018,02,06,01,23,7.30
2018,02,06,01,24,7.30
2018,02,06,01,25,7.30
2018,02,06,01,26,7.40
2018,02,06,01,27,7.40
2018,02,06,01,28,7.40
2018,02,06,01,29,7.40
2018,02,06,01,30,7.40
2018,02,06,01,31,7.40
2018,02,06,01,32,7.40
2018,02,06,01,33,7.50
2018,02,06,01,34,7.50
2018,02,06,01,35,7.50
2018,02,06,01,36,7.50
2018,02,06,01,37,7.50
2018,02,06,01,38,7.60
2018,02,06,01,39,7.60
2018,02,06,01,40,7.60
2018,02,06,01,41,7.60
2018,02,06,01,42,7.60
2018,02,06,01,43,7.60
2018,02,06,01,44,7.60
2018,02,06,01,45,7.60
2018,02,06,01,46,7.60
2018,02,06,01,47,7.60
2018,02,06,01,48,7.60
2018,02,06,01,49,7.60
2018,02,06,01,50,7.70
2018,02,06,01,51,7.70
2018,02,06,01,52,7.70
2018,02,06,01,53,7.70
2018,02,06,01,54,7.70
2018,02,06,01,55,7.70
2018,02,06,01,56,7.70
2018,02,06,01,57,7.70
2018,02,06,01,58,7.70
2018,02,06,01,59,7.70
2018,02,06,02,00,7.70
2018,02,06,02,01,7.70
2018,02,06,02,02,7.70
2018,02,06,02,03,7.70
2018,02,06,02,04,7.70
2018,02,06,02,05,7.70
2018,02,06,02,06,7.70
2018,02,06,02,07,7.70
2018,02,06,02,08,7.70
2018,02,06,02,09,7.70
2018,02,06,02,10,7.70
2018,02,06,02,11,7.70
2018,02,06,02,12,7.70
2018,02,06,02,13,7.70
2018,02,06,02,14,7.70
2018,02,06,02,15,7.70
2018,02,06,02,16,7.70
2018,02,06,02,17,7.70
2018,02,06,02,18,7.70
2018,02,06,02,19,7.70
2018,02,06,02,20,7.70
2018,02,06,02,21,7.70
2018,02,06,02,22,7.70
2018,02,06,02,23,7.70
2018,02,06,02,24,7.70
2018,02,06,02,25,7.70
2018,02,06,02,26,7.70
2018,02,06,02,27,7.70
2018,02,06,02,28,7.70
2018,02,06,02,29,7.70
2018,02,06,02,30,7.70
2018,02,06,02,31,7.70
2018,02,06,02,32,7.70
2018,02,06,02,33,7.70
2018,02,06,02,34,7.70
2018,02,06,02,35,7.70
2018,02,06,02,36,7.70
2018,02,06,02,37,7.70
2018,02,06,02,38,7.70
2018,02,06,02,39,7.70
2018,02,06,02,40,7.70
2018,02,06,02,41,7.70
2018,02,06,02,42,7.70
2018,02,06,02,43,7.70
2018,02,06,02,44,7.70
2018,02,06,02,45,7.70
2018,02,06,02,46,7.60
2018,02,06,02,47,7.60
2018,02,06,02,48,7.60
2018,02,06,02,49,7.60
2018,02,06,02,50,7.60
2018,02,06,02,51,7.60
2018,02,06,02,52,7.60
2018,02,06,02,53,7.60
2018,02,06,02,54,7.60
2018,02,06,02,55,7.60
2018,02,06,02,56,7.60
2018,02,06,02,57,7.60
2018,02,06,02,58,7.60
2018,02,06,02,59,7.60
2018,02,06,03,00,7.60
2018,02,06,03,01,7.60
2018,02,06,03,02,7.60
2018,02,06,03,03,7.60
2018,02,06,03,04,7.50
2018,02,06,03,05,7.50
2018,02,06,03,06,7.50
2018,02,06,03,07,7.50
2018,02,06,03,08,7.40
2018,02,06,03,09,7.40
2018,02,06,03,10,7.40
2018,02,06,03,11,7.40
2018,02,06,03,12,7.40
2018,02,06,03,13,7.40
2018,02,06,03,14,7.40
2018,02,06,03,15,7.40
2018,02,06,03,16,7.40
2018,02,06,03,17,7.40
2018,02,06,03,18,7.40
2018,02,06,03,19,7.40
2018,02,06,03,20,7.40
2018,02,06,03,21,7.40
2018,02,06,03,22,7.40
2018,02,06,03,23,7.40
2018,02,06,03,24,7.40
2018,02,06,03,25,7.40
2018,02,06,03,26,7.40
2018,02,06,03,27,7.40
2018,02,06,03,28,7.40
2018,02,06,03,29,7.40
2018,02,06,03,30,7.40
2018,02,06,03,31,7.40
2018,02,06,03,32,7.30
2018,02,06,03,33,7.30
2018,02,06,03,34,7.30
2018,02,06,03,35,7.30
2018,02,06,03,36,7.30
2018,02,06,03,37,7.30
2018,02,06,03,38,7.30
2018,02,06,03,39,7.30
2018,02,06,03,40,7.30
2018,02,06,03,41,7.30
2018,02,06,03,42,7.30
2018,02,06,03,43,7.30
2018,02,06,03,44,7.30
2018,02,06,03,45,7.30
2018,02,06,03,46,7.20
2018,02,06,03,47,7.20
2018,02,06,03,48,7.20
2018,02,06,03,49,7.20
2018,02,06,03,50,7.20
2018,02,06,03,51,7.20
2018,02,06,03,52,7.20
2018,02,06,03,53,7.20
2018,02,06,03,54,7.20
2018,02,06,03,55,7.20
2018,02,06,03,56,7.20
2018,02,06,03,57,7.20
2018,02,06,03,58,7.20
2018,02,06,03,59,7.20
2018,02,06,04,00,7.20
2018,02,06,04,01,7.20
2018,02,06,04,02,7.20
2018,02,06,04,03,7.20
2018,02,06,04,04,7.20
2018,02,06,04,05,7.20
2018,02,06,04,06,7.20
2018,02,06,04,07,7.20
2018,02,06,04,08,7.20
2018,02,06,04,09,7.20
2018,02,06,04,10,7.20
2018,02,06,04,11,7.20
2018,02,06,04,12,7.10
2018,02,06,04,13,7.10
2018,02,06,04,14,7.10
2018,02,06,04,15,7.10
2018,02,06,04,16,7.10
2018,02,06,04,17,7.10
2018,02,06,04,18,7.10
2018,02,06,04,19,7.10
2018,02,06,04,20,7.10
2018,02,06,04,21,7.10
2018,02,06,04,22,7.10
2018,02,06,04,23,7.00
2018,02,06,04,24,7.00
2018,02,06,04,25,6.90
2018,02,06,04,26,6.90
2018,02,06,04,27,6.90
2018,02,06,04,28,6.90
2018,02,06,04,29,6.80
2018,02,06,04,30,6.80
2018,02,06,04,31,6.80
2018,02,06,04,32,6.80
2018,02,06,04,33,6.70
2018,02,06,04,34,6.70
2018,02,06,04,35,6.70
2018,02,06,04,36,6.70
2018,02,06,04,37,6.60
2018,02,06,04,38,6.60
2018,02,06,04,39,6.50
2018,02,06,04,40,6.40
2018,02,06,04,41,6.40
2018,02,06,04,42,6.30
2018,02,06,04,43,6.30
2018,02,06,04,44,6.20
2018,02,06,04,45,6.10
2018,02,06,04,46,6.10
2018,02,06,04,47,6.00
2018,02,06,04,48,6.00
2018,02,06,04,49,5.90
2018,02,06,04,50,5.90
2018,02,06,04,51,5.90
2018,02,06,04,52,5.80
2018,02,06,04,53,5.80
2018,02,06,04,54,5.80
2018,02,06,04,55,5.70
2018,02,06,04,56,5.70
2018,02,06,04,57,5.60
2018,02,06,04,58,5.60
2018,02,06,04,59,5.60
2018,02,06,05,00,5.60
2018,02,06,05,01,5.50
2018,02,06,05,02,5.50
2018,02,06,05,03,5.40
2018,02,06,05,04,5.40
2018,02,06,05,05,5.40
2018,02,06,05,06,5.40
2018,02,06,05,07,5.40
2018,02,06,05,08,5.30
2018,02,06,05,09,5.30
2018,02,06,05,10,5.30
2018,02,06,05,11,5.30
2018,02,06,05,12,5.30
2018,02,06,05,13,5.30
2018,02,06,05,14,5.30
2018,02,06,05,15,5.30
2018,02,06,05,16,5.30
2018,02,06,05,17,5.30
2018,02,06,05,18,5.30
2018,02,06,05,19,5.30
2018,02,06,05,20,5.30
2018,02,06,05,21,5.30
2018,02,06,05,22,5.30
2018,02,06,05,23,5.30
2018,02,06,05,24,5.30
2018,02,06,05,25,5.30
2018,02,06,05,26,5.20
2018,02,06,05,27,5.20
2018,02,06,05,28,5.20
2018,02,06,05,29,5.20
2018,02,06,05,30,5.20
2018,02,06,05,31,5.10
2018,02,06,05,32,5.10
2018,02,06,05,33,5.10
2018,02,06,05,34,5.00
2018,02,06,05,35,5.00
2018,02,06,05,36,5.00
2018,02,06,05,37,4.90
2018,02,06,05,38,4.90
2018,02,06,05,39,4.90
2018,02,06,05,40,4.90
2018,02,06,05,41,4.80
2018,02,06,05,42,4.80
2018,02,06,05,43,4.80
2018,02,06,05,44,4.80
2018,02,06,05,45,4.80
2018,02,06,05,46,4.80
2018,02,06,05,47,4.80
2018,02,06,05,48,4.80
2018,02,06,05,49,4.80
2018,02,06,05,50,4.80
2018,02,06,05,51,4.70
2018,02,06,05,52,4.70
2018,02,06,05,53,4.70
2018,02,06,05,54,4.70
2018,02,06,05,55,4.70
2018,02,06,05,56,4.70
2018,02,06,05,57,4.70
2018,02,06,05,58,4.70
2018,02,06,05,59,4.70
2018,02,06,06,00,4.80
2018,02,06,06,01,4.80
2018,02,06,06,02,4.80
2018,02,06,06,03,4.80
2018,02,06,06,04,4.80
2018,02,06,06,05,4.80
2018,02,06,06,06,4.80
2018,02,06,06,07,4.80
2018,02,06,06,08,4.80
2018,02,06,06,09,4.80
2018,02,06,06,10,4.80
2018,02,06,06,11,4.80
2018,02,06,06,12,4.80
2018,02,06,06,13,4.80
2018,02,06,06,14,4.80
2018,02,06,06,15,4.90
2018,02,06,06,16,4.80
2018,02,06,06,17,4.80
2018,02,06,06,18,4.90
2018,02,06,06,19,4.90
2018,02,06,06,20,4.90
2018,02,06,06,21,4.90
2018,02,06,06,22,4.90
2018,02,06,06,23,4.90
2018,02,06,06,24,4.90
2018,02,06,06,25,5.00
2018,02,06,06,26,5.00
2018,02,06,06,27,5.00
2018,02,06,06,28,5.00
2018,02,06,06,29,5.10
2018,02,06,06,30,5.10
2018,02,06,06,31,5.10
2018,02,06,06,32,5.20
2018,02,06,06,33,5.20
2018,02,06,06,34,5.20
2018,02,06,06,35,5.20
2018,02,06,06,36,5.20
2018,02,06,06,37,5.20
2018,02,06,06,38,5.30
2018,02,06,06,39,5.30
2018,02,06,06,40,5.30
2018,02,06,06,41,5.30
2018,02,06,06,42,5.30
2018,02,06,06,43,5.30
2018,02,06,06,44,5.30
2018,02,06,06,45,5.30
2018,02,06,06,46,5.30
2018,02,06,06,47,5.30
2018,02,06,06,48,5.30
2018,02,06,06,49,5.30
2018,02,06,06,50,5.30
2018,02,06,06,51,5.30
2018,02,06,06,52,5.40
2018,02,06,06,53,5.40
2018,02,06,06,54,5.40
2018,02,06,06,55,5.40
2018,02,06,06,56,5.50
2018,02,06,06,57,5.50
2018,02,06,06,58,5.60
2018,02,06,06,59,5.60
2018,02,06,07,00,5.70
2018,02,06,07,01,5.70
2018,02,06,07,02,5.70
2018,02,06,07,03,5.70
2018,02,06,07,04,5.70
2018,02,06,07,05,5.70
2018,02,06,07,06,5.70
2018,02,06,07,07,5.80
2018,02,06,07,08,5.80
2018,02,06,07,09,5.80
2018,02,06,07,10,5.80
2018,02,06,07,11,5.70
2018,02,06,07,12,5.70
2018,02,06,07,13,5.70
2018,02,06,07,14,5.70
2018,02,06,07,15,5.70
2018,02,06,07,16,5.70
2018,02,06,07,17,5.70
2018,02,06,07,18,5.70
2018,02,06,07,19,5.70
2018,02,06,07,20,5.70
2018,02,06,07,21,5.70
2018,02,06,07,22,5.70
2018,02,06,07,23,5.70
2018,02,06,07,24,5.70
2018,02,06,07,25,5.70
2018,02,06,07,26,5.70
2018,02,06,07,27,5.70
2018,02,06,07,28,5.70
2018,02,06,07,29,5.70
2018,02,06,07,30,5.70
2018,02,06,07,31,5.70
2018,02,06,07,32,5.60
2018,02,06,07,33,5.60
2018,02,06,07,34,5.60
2018,02,06,07,35,5.60
2018,02,06,07,36,5.60
2018,02,06,07,37,5.60
2018,02,06,07,38,5.60
2018,02,06,07,39,5.60
2018,02,06,07,40,5.60
2018,02,06,07,41,5.60
2018,02,06,07,42,5.60
2018,02,06,07,43,5.50
2018,02,06,07,44,5.50
2018,02,06,07,45,5.50
2018,02,06,07,46,5.50
2018,02,06,07,47,5.40
2018,02,06,07,48,5.40
2018,02,06,07,49,5.40
2018,02,06,07,50,5.40
2018,02,06,07,51,5.40
2018,02,06,07,52,5.40
2018,02,06,07,53,5.30
2018,02,06,07,54,5.30
2018,02,06,07,55,5.30
2018,02,06,07,56,5.30
2018,02,06,07,57,5.30
2018,02,06,07,58,5.40
2018,02,06,07,59,5.40
2018,02,06,08,00,5.40
2018,02,06,08,01,5.40
2018,02,06,08,02,5.40
2018,02,06,08,03,5.40
2018,02,06,08,04,5.50
2018,02,06,08,05,5.50
2018,02,06,08,06,5.50
2018,02,06,08,07,5.50
2018,02,06,08,08,5.60
2018,02,06,08,09,5.60
2018,02,06,08,10,5.60
2018,02,06,08,11,5.60
2018,02,06,08,12,5.60
2018,02,06,08,13,5.60
2018,02,06,08,14,5.60
2018,02,06,08,15,5.60
2018,02,06,08,16,5.60
2018,02,06,08,17,5.70
2018,02,06,08,18,5.70
2018,02,06,08,19,5.70
2018,02,06,08,20,5.60
2018,02,06,08,21,5.60
2018,02,06,08,22,5.70
2018,02,06,08,23,5.70
2018,02,06,08,24,5.70
2018,02,06,08,25,5.70
2018,02,06,08,26,5.70
2018,02,06,08,27,5.70
2018,02,06,08,28,5.70
2018,02,06,08,29,5.70
2018,02,06,08,30,5.70
2018,02,06,08,31,5.70
2018,02,06,08,32,5.70
2018,02,06,08,33,5.80
2018,02,06,08,34,5.80
2018,02,06,08,35,5.80
2018,02,06,08,36,5.80
2018,02,06,08,37,5.80
2018,02,06,08,38,5.80
2018,02,06,08,39,5.80
2018,02,06,08,40,5.80
2018,02,06,08,41,5.80
2018,02,06,08,42,5.80
2018,02,06,08,43,5.90
2018,02,06,08,44,5.90
2018,02,06,08,45,5.90
2018,02,06,08,46,5.90
2018,02,06,08,47,5.90
2018,02,06,08,48,5.90
2018,02,06,08,49,5.90
2018,02,06,08,50,6.00
2018,02,06,08,51,6.00
2018,02,06,08,52,6.10
2018,02,06,08,53,6.10
2018,02,06,08,54,6.20
2018,02,06,08,55,6.30
2018,02,06,08,56,6.30
2018,02,06,08,57,6.30
2018,02,06,08,58,6.40
2018,02,06,08,59,6.40
2018,02,06,09,00,6.40
2018,02,06,09,01,6.50
2018,02,06,09,02,6.60
2018,02,06,09,03,6.70
2018,02,06,09,04,6.80
2018,02,06,09,05,6.90
2018,02,06,09,06,7.00
2018,02,06,09,07,7.10
2018,02,06,09,08,7.20
2018,02,06,09,09,7.20
2018,02,06,09,10,7.30
2018,02,06,09,11,7.30
2018,02,06,09,12,7.40
2018,02,06,09,13,7.40
2018,02,06,09,14,7.50
2018,02,06,09,15,7.50
2018,02,06,09,16,7.50
2018,02,06,09,17,7.50
2018,02,06,09,18,7.60
2018,02,06,09,19,7.60
2018,02,06,09,20,7.60
2018,02,06,09,21,7.60
2018,02,06,09,22,7.60
2018,02,06,09,23,7.70
2018,02,06,09,24,7.70
2018,02,06,09,25,7.70
2018,02,06,09,26,7.70
2018,02,06,09,27,7.70
2018,02,06,09,28,7.70
2018,02,06,09,29,7.70
2018,02,06,09,30,7.70
2018,02,06,09,31,7.70
2018,02,06,09,32,7.80
2018,02,06,09,33,7.80
2018,02,06,09,34,7.80
2018,02,06,09,35,7.80
2018,02,06,09,36,7.80
2018,02,06,09,37,7.80
2018,02,06,09,38,7.80
2018,02,06,09,39,7.80
2018,02,06,09,40,7.80
2018,02,06,09,41,7.80
2018,02,06,09,42,7.90
2018,02,06,09,43,7.90
2018,02,06,09,44,7.90
2018,02,06,09,45,7.90
2018,02,06,09,46,7.90
2018,02,06,09,47,7.90
2018,02,06,09,48,7.90
2018,02,06,09,49,7.80
2018,02,06,09,50,7.90
2018,02,06,09,51,7.90
2018,02,06,09,52,7.80
2018,02,06,09,53,7.80
2018,02,06,09,54,7.80
2018,02,06,09,55,7.80
2018,02,06,09,56,7.80
2018,02,06,09,57,7.80
2018,02,06,09,58,7.80
2018,02,06,09,59,7.80
2018,02,06,10,00,7.80
2018,02,06,10,01,7.80
2018,02,06,10,02,7.90
2018,02,06,10,03,7.90
2018,02,06,10,04,7.90
2018,02,06,10,05,7.90
2018,02,06,10,06,7.90
2018,02,06,10,07,7.90
2018,02,06,10,08,7.90
2018,02,06,10,09,7.90
2018,02,06,10,10,7.90
2018,02,06,10,11,7.90
2018,02,06,10,12,7.90
2018,02,06,10,13,7.90
2018,02,06,10,14,7.90
2018,02,06,10,15,7.90
2018,02,06,10,16,7.90
2018,02,06,10,17,7.90
2018,02,06,10,18,7.90
2018,02,06,10,19,7.90
2018,02,06,10,20,7.90
2018,02,06,10,21,8.00
2018,02,06,10,22,8.00
2018,02,06,10,23,8.00
2018,02,06,10,24,8.00
2018,02,06,10,25,8.10
2018,02,06,10,26,8.10
2018,02,06,10,27,8.10
2018,02,06,10,28,8.10
2018,02,06,10,29,8.10
2018,02,06,10,30,8.10
2018,02,06,10,31,8.10
2018,02,06,10,32,8.10
2018,02,06,10,33,8.10
2018,02,06,10,34,8.10
2018,02,06,10,35,8.10
2018,02,06,10,36,8.10
2018,02,06,10,37,8.10
2018,02,06,10,38,8.10
2018,02,06,10,39,8.10
2018,02,06,10,40,8.10
2018,02,06,10,41,8.20
2018,02,06,10,42,8.20
2018,02,06,10,43,8.10
2018,02,06,10,44,8.20
2018,02,06,10,45,8.20
2018,02,06,10,46,8.20
2018,02,06,10,47,8.30
2018,02,06,10,48,8.30
2018,02,06,10,49,8.30
2018,02,06,10,50,8.30
2018,02,06,10,51,8.30
2018,02,06,10,52,8.40
2018,02,06,10,53,8.40
2018,02,06,10,54,8.40
2018,02,06,10,55,8.40
2018,02,06,10,56,8.40
2018,02,06,10,57,8.40
2018,02,06,10,58,8.30
2018,02,06,10,59,8.30
2018,02,06,11,00,8.30
2018,02,06,11,01,8.30
2018,02,06,11,02,8.30
2018,02,06,11,03,8.30
2018,02,06,11,04,8.30
2018,02,06,11,05,8.30
2018,02,06,11,06,8.30
2018,02,06,11,07,8.30
2018,02,06,11,08,8.30
2018,02,06,11,09,8.30
2018,02,06,11,10,8.30
2018,02,06,11,11,8.30
2018,02,06,11,12,8.30
2018,02,06,11,13,8.30
2018,02,06,11,14,8.40
2018,02,06,11,15,8.40
2018,02,06,11,16,8.40
2018,02,06,11,17,8.40
2018,02,06,11,18,8.40
2018,02,06,11,19,8.50
2018,02,06,11,20,8.50
2018,02,06,11,21,8.40
2018,02,06,11,22,8.40
2018,02,06,11,23,8.40
2018,02,06,11,24,8.40
2018,02,06,11,25,8.40
2018,02,06,11,26,8.40
2018,02,06,11,27,8.40
2018,02,06,11,28,8.40
2018,02,06,11,29,8.40
2018,02,06,11,30,8.40
2018,02,06,11,31,8.30
2018,02,06,11,32,8.30
2018,02,06,11,33,8.30
2018,02,06,11,34,8.30
2018,02,06,11,35,8.30
2018,02,06,11,36,8.30
2018,02,06,11,37,8.30
2018,02,06,11,38,8.30
2018,02,06,11,39,8.30
2018,02,06,11,40,8.30
2018,02,06,11,41,8.30
2018,02,06,11,42,8.30
2018,02,06,11,43,8.30
2018,02,06,11,44,8.20
2018,02,06,11,45,8.20
2018,02,06,11,46,8.20
2018,02,06,11,47,8.20
2018,02,06,11,48,8.30
2018,02,06,11,49,8.30
2018,02,06,11,50,8.30
2018,02,06,11,51,8.30
2018,02,06,11,52,8.30
2018,02,06,11,53,8.30
2018,02,06,11,54,8.30
2018,02,06,11,55,8.30
2018,02,06,11,56,8.30
2018,02,06,11,57,8.30
2018,02,06,11,58,8.30
2018,02,06,11,59,8.30
2018,02,06,12,00,8.30
2018,02,06,12,01,8.40
2018,02,06,12,02,8.40
2018,02,06,12,03,8.40
2018,02,06,12,04,8.40
2018,02,06,12,05,8.40
2018,02,06,12,06,8.40
2018,02,06,12,07,8.40
2018,02,06,12,08,8.40
2018,02,06,12,09,8.40
2018,02,06,12,10,8.50
2018,02,06,12,11,8.50
2018,02,06,12,12,8.50
2018,02,06,12,13,8.50
2018,02,06,12,14,8.50
2018,02,06,12,15,8.60
2018,02,06,12,16,8.60
2018,02,06,12,17,8.60
2018,02,06,12,18,8.60
2018,02,06,12,19,8.60
2018,02,06,12,20,8.60
2018,02,06,12,21,8.60
2018,02,06,12,22,8.60
2018,02,06,12,23,8.60
2018,02,06,12,24,8.60
2018,02,06,12,25,8.60
2018,02,06,12,26,8.60
2018,02,06,12,27,8.60
2018,02,06,12,28,8.70
2018,02,06,12,29,8.70
2018,02,06,12,30,8.70
2018,02,06,12,31,8.70
2018,02,06,12,32,8.70
2018,02,06,12,33,8.70
2018,02,06,12,34,8.70
2018,02,06,12,35,8.70
2018,02,06,12,36,8.70
2018,02,06,12,37,8.60
2018,02,06,12,38,8.60
2018,02,06,12,39,8.60
2018,02,06,12,40,8.60
2018,02,06,12,41,8.60
2018,02,06,12,42,8.60
2018,02,06,12,43,8.60
2018,02,06,12,44,8.60
2018,02,06,12,45,8.60
2018,02,06,12,46,8.60
2018,02,06,12,47,8.60
2018,02,06,12,48,8.60
2018,02,06,12,49,8.60
2018,02,06,12,50,8.60
2018,02,06,12,51,8.60
2018,02,06,12,52,8.60
2018,02,06,12,53,8.70
2018,02,06,12,54,8.70
2018,02,06,12,55,8.70
2018,02,06,12,56,8.70
2018,02,06,12,57,8.70
2018,02,06,12,58,8.70
2018,02,06,12,59,8.70
2018,02,06,13,00,8.70
2018,02,06,13,01,8.70
2018,02,06,13,02,8.70
2018,02,06,13,03,8.70
2018,02,06,13,04,8.70
2018,02,06,13,05,8.70
2018,02,06,13,06,8.70
2018,02,06,13,07,8.60
2018,02,06,13,08,8.60
2018,02,06,13,09,8.60
2018,02,06,13,10,8.60
2018,02,06,13,11,8.60
2018,02,06,13,12,8.60
2018,02,06,13,13,8.60
2018,02,06,13,14,8.60
2018,02,06,13,15,8.60
2018,02,06,13,16,8.60
2018,02,06,13,17,8.60
2018,02,06,13,18,8.50
2018,02,06,13,19,8.60
2018,02,06,13,20,8.50
2018,02,06,13,21,8.50
2018,02,06,13,22,8.40
2018,02,06,13,23,8.40
2018,02,06,13,24,8.40
2018,02,06,13,25,8.40
2018,02,06,13,26,8.40
2018,02,06,13,27,8.40
2018,02,06,13,28,8.40
2018,02,06,13,29,8.30
2018,02,06,13,30,8.30
2018,02,06,13,31,8.30
2018,02,06,13,32,8.40
2018,02,06,13,33,8.40
2018,02,06,13,34,8.40
2018,02,06,13,35,8.40
2018,02,06,13,36,8.40
2018,02,06,13,37,8.40
2018,02,06,13,38,8.40
2018,02,06,13,39,8.40
2018,02,06,13,40,8.40
2018,02,06,13,41,8.40
2018,02,06,13,42,8.30
2018,02,06,13,43,8.30
2018,02,06,13,44,8.30
2018,02,06,13,45,8.30
2018,02,06,13,46,8.30
2018,02,06,13,47,8.20
2018,02,06,13,48,8.20
2018,02,06,13,49,8.20
2018,02,06,13,50,8.20
2018,02,06,13,51,8.20
2018,02,06,13,52,8.20
2018,02,06,13,53,8.20
2018,02,06,13,54,8.20
2018,02,06,13,55,8.20
2018,02,06,13,56,8.20
2018,02,06,13,57,8.20
2018,02,06,13,58,8.20
2018,02,06,13,59,8.20
2018,02,06,14,00,8.20
2018,02,06,14,01,8.20
2018,02,06,14,02,8.20
2018,02,06,14,03,8.20
2018,02,06,14,04,8.20
2018,02,06,14,05,8.20
2018,02,06,14,06,8.20
2018,02,06,14,07,8.20
2018,02,06,14,08,8.20
2018,02,06,14,09,8.20
2018,02,06,14,10,8.20
2018,02,06,14,11,8.20
2018,02,06,14,12,8.20
2018,02,06,14,13,8.20
2018,02,06,14,14,8.20
2018,02,06,14,15,8.20
2018,02,06,14,16,8.20
2018,02,06,14,17,8.20
2018,02,06,14,18,8.20
2018,02,06,14,19,8.20
2018,02,06,14,20,8.20
2018,02,06,14,21,8.20
2018,02,06,14,22,8.20
2018,02,06,14,23,8.20
2018,02,06,14,24,8.20
2018,02,06,14,25,8.20
2018,02,06,14,26,8.20
2018,02,06,14,27,8.20
2018,02,06,14,28,8.20
2018,02,06,14,29,8.20
2018,02,06,14,30,8.20
2018,02,06,14,31,8.20
2018,02,06,14,32,8.20
2018,02,06,14,33,8.20
2018,02,06,14,34,8.20
2018,02,06,14,35,8.20
2018,02,06,14,36,8.20
2018,02,06,14,37,8.20
2018,02,06,14,38,8.20
2018,02,06,14,39,8.20
2018,02,06,14,40,8.20
2018,02,06,14,41,8.20
2018,02,06,14,42,8.20
2018,02,06,14,43,8.20
2018,02,06,14,44,8.20
2018,02,06,14,45,8.20
2018,02,06,14,46,8.20
2018,02,06,14,47,8.20
2018,02,06,14,48,8.20
2018,02,06,14,49,8.20
2018,02,06,14,50,8.10
2018,02,06,14,51,8.20
2018,02,06,14,52,8.20
2018,02,06,14,53,8.20
2018,02,06,14,54,8.20
2018,02,06,14,55,8.20
2018,02,06,14,56,8.20
2018,02,06,14,57,8.20
2018,02,06,14,58,8.20
2018,02,06,14,59,8.20
2018,02,06,15,00,8.10
2018,02,06,15,01,8.10
2018,02,06,15,02,8.10
2018,02,06,15,03,8.10
2018,02,06,15,04,8.20
2018,02,06,15,05,8.20
2018,02,06,15,06,8.20
2018,02,06,15,07,8.20
2018,02,06,15,08,8.20
2018,02,06,15,09,8.20
2018,02,06,15,10,8.20
2018,02,06,15,11,8.20
2018,02,06,15,12,8.20
2018,02,06,15,13,8.20
2018,02,06,15,14,8.20
2018,02,06,15,15,8.20
2018,02,06,15,16,8.20
2018,02,06,15,17,8.20
2018,02,06,15,18,8.20
2018,02,06,15,19,8.10
2018,02,06,15,20,8.10
2018,02,06,15,21,8.10
2018,02,06,15,22,8.10
2018,02,06,15,23,8.10
2018,02,06,15,24,8.10
2018,02,06,15,25,8.10
2018,02,06,15,26,8.20
2018,02,06,15,27,8.10
2018,02,06,15,28,8.10
2018,02,06,15,29,8.10
2018,02,06,15,30,8.10
2018,02,06,15,31,8.10
2018,02,06,15,32,8.10
2018,02,06,15,33,8.10
2018,02,06,15,34,8.10
2018,02,06,15,35,8.10
2018,02,06,15,36,8.10
2018,02,06,15,37,8.10
2018,02,06,15,38,8.10
2018,02,06,15,39,8.10
2018,02,06,15,40,8.10
2018,02,06,15,41,8.10
2018,02,06,15,42,8.10
2018,02,06,15,43,8.10
2018,02,06,15,44,8.10
2018,02,06,15,45,8.10
2018,02,06,15,46,8.10
2018,02,06,15,47,8.10
2018,02,06,15,48,8.10
2018,02,06,15,49,8.10
2018,02,06,15,50,8.10
2018,02,06,15,51,8.10
2018,02,06,15,52,8.10
2018,02,06,15,53,8.10
2018,02,06,15,54,8.10
2018,02,06,15,55,8.10
2018,02,06,15,56,8.10
2018,02,06,15,57,8.10
2018,02,06,15,58,8.10
2018,02,06,15,59,8.10
2018,02,06,16,00,8.10
2018,02,06,16,01,8.10
2018,02,06,16,02,8.10
2018,02,06,16,03,8.10
2018,02,06,16,04,8.20
2018,02,06,16,05,8.10
2018,02,06,16,06,8.10
2018,02,06,16,07,8.10
2018,02,06,16,08,8.10
2018,02,06,16,09,8.10
2018,02,06,16,10,8.10
2018,02,06,16,11,8.10
2018,02,06,16,12,8.10
2018,02,06,16,13,8.10
2018,02,06,16,14,8.20
2018,02,06,16,15,8.20
2018,02,06,16,16,8.20
2018,02,06,16,17,8.20
2018,02,06,16,18,8.20
2018,02,06,16,19,8.20
2018,02,06,16,20,8.20
2018,02,06,16,21,8.20
2018,02,06,16,22,8.20
2018,02,06,16,23,8.20
2018,02,06,16,24,8.20
2018,02,06,16,25,8.20
2018,02,06,16,26,8.20
2018,02,06,16,27,8.20
2018,02,06,16,28,8.20
2018,02,06,16,29,8.20
2018,02,06,16,30,8.20
2018,02,06,16,31,8.20
2018,02,06,16,32,8.20
2018,02,06,16,33,8.20
2018,02,06,16,34,8.20
2018,02,06,16,35,8.20
2018,02,06,16,36,8.20
2018,02,06,16,37,8.20
2018,02,06,16,38,8.20
2018,02,06,16,39,8.20
2018,02,06,16,40,8.20
2018,02,06,16,41,8.20
2018,02,06,16,42,8.20
2018,02,06,16,43,8.20
2018,02,06,16,44,8.20
2018,02,06,16,45,8.20
2018,02,06,16,46,8.20
2018,02,06,16,47,8.20
2018,02,06,16,48,8.20
2018,02,06,16,49,8.20
2018,02,06,16,50,8.20
2018,02,06,16,51,8.20
2018,02,06,16,52,8.20
2018,02,06,16,53,8.20
2018,02,06,16,54,8.20
2018,02,06,16,55,8.20
2018,02,06,16,56,8.20
2018,02,06,16,57,8.20
2018,02,06,16,58,8.10
2018,02,06,16,59,8.10
2018,02,06,17,00,8.10
2018,02,06,17,01,8.10
2018,02,06,17,02,8.10
2018,02,06,17,03,8.10
2018,02,06,17,04,8.10
2018,02,06,17,05,8.10
2018,02,06,17,06,8.10
2018,02,06,17,07,8.10
2018,02,06,17,08,8.10
2018,02,06,17,09,8.10
2018,02,06,17,10,8.10
2018,02,06,17,11,8.10
2018,02,06,17,12,8.10
2018,02,06,17,13,8.10
2018,02,06,17,14,8.10
2018,02,06,17,15,8.10
2018,02,06,17,16,8.10
2018,02,06,17,17,8.10
2018,02,06,17,18,8.10
2018,02,06,17,19,8.10
2018,02,06,17,20,8.10
2018,02,06,17,21,8.10
2018,02,06,17,22,8.10
2018,02,06,17,23,8.10
2018,02,06,17,24,8.10
2018,02,06,17,25,8.20
2018,02,06,17,26,8.20
2018,02,06,17,27,8.20
2018,02,06,17,28,8.10
2018,02,06,17,29,8.10
2018,02,06,17,30,8.10
2018,02,06,17,31,8.10
2018,02,06,17,32,8.10
2018,02,06,17,33,8.10
2018,02,06,17,34,8.10
2018,02,06,17,35,8.10
2018,02,06,17,36,8.10
2018,02,06,17,37,8.10
2018,02,06,17,38,8.10
2018,02,06,17,39,8.00
2018,02,06,17,40,8.00
2018,02,06,17,41,8.00
2018,02,06,17,42,8.00
2018,02,06,17,43,8.00
2018,02,06,17,44,8.00
2018,02,06,17,45,8.00
2018,02,06,17,46,8.00
2018,02,06,17,47,8.00
2018,02,06,17,48,8.00
2018,02,06,17,49,8.00
2018,02,06,17,50,8.00
2018,02,06,17,51,8.00
2018,02,06,17,52,8.00
2018,02,06,17,53,8.00
2018,02,06,17,54,8.00
2018,02,06,17,55,8.00
2018,02,06,17,56,8.00
2018,02,06,17,57,8.00
2018,02,06,17,58,8.00
2018,02,06,17,59,8.00
2018,02,06,18,00,8.00
2018,02,06,18,01,8.00
2018,02,06,18,02,8.00
2018,02,06,18,03,8.10
2018,02,06,18,04,8.00
2018,02,06,18,05,8.00
2018,02,06,18,06,8.00